Regional Weather Roundup
Issued by NWS Charleston, WV

Home | Current Version | Previous Version | Text Only | Print | Product List | Glossary Off
Versions: 1 2 3 4 5 6 7 8 9 10 11 12 13 14 15 16 17 18 19 20 21 22 23 24 25 26 27 28 29 30 31 32 33 34 35 36 37 38 39 40 41 42 43 44 45 46 47 48 49 50

000
ASUS41 KRLX 292010
RWRRLX
West Virginia Regional Weather Roundup
National Weather Service Charleston WV
400 PM EDT FRI AUG 29 2014

Note: "fair" indicates few or no clouds below 12,000 feet with no
significant weather and/or obstructions to visibility.

WVZ003-292100-
Northern Panhandle of West Virginia

CITY           SKY/WX    TMP DP  RH WIND       PRES   REMARKS
WHEELING       SUNNY     79  53  40 CALM      30.12F
$$

WVZ009-292100-
Northwest West Virginia

CITY           SKY/WX    TMP DP  RH WIND       PRES   REMARKS
PARKERSBURG    SUNNY     84  58  40 NE6       30.11F
$$

WVZ006-292100-
Western West Virginia

CITY           SKY/WX    TMP DP  RH WIND       PRES   REMARKS
HUNTINGTON     SUNNY     87  66  49 VRB3      30.05F
$$

WVZ015-292100-
West Central West Virginia

CITY           SKY/WX    TMP DP  RH WIND       PRES   REMARKS
CHARLESTON     MOSUNNY   88  66  48 CALM      30.06F
$$

WVZ031-292100-
North Central West Virginia

CITY           SKY/WX    TMP DP  RH WIND       PRES   REMARKS
CLARKSBURG     SUNNY     82  55  39 N5        30.11F
MORGANTOWN     MOSUNNY   83  53  35 NE3       30.13F
$$

WVZ035-042-045-292100-
South Central West Virginia

CITY           SKY/WX    TMP DP  RH WIND       PRES   REMARKS
BECKLEY        PTSUNNY   80  64  58 SE3       30.16F
BLUEFIELD      SUNNY     82  67  60 VRB5      30.19F
LEWISBURG      SUNNY     82  61  48 CALM      30.17F
$$

WVZ047-292100-
Northern Mountains of West Virginia

CITY           SKY/WX    TMP DP  RH WIND       PRES   REMARKS
ELKINS         MOSUNNY   83  59  44 MISG      30.14F
$$

WVZ052-292100-
Eastern Panhandle of West Virginia

CITY           SKY/WX    TMP DP  RH WIND       PRES   REMARKS
MARTINSBURG    SUNNY     78  51  38 MISG      30.16F
PETERSBURG     NOT AVBL
$$



USA.gov is the U.S. government's official web portal to all federal, state and local government web resources and services.